Погода Аскино

Погода Аскино : погода сейчас, прогноз погоды и архив. Всё, что Вы хотите узнать о погоде Аскино!

Поиск расширенной информации на нашем сайте:

Другие новости

Новости СМИ2

Главная страница сайта

Новости сайта

03.07.2017

Напоминаем, что на нашем специализированном сайте Метеоцентр.Азия вы можете получить высокодетализированные автоматические прогнозы погоды по пунктам России, СНГ и мира в авиационном формате (включающие направление и скорость ветра, видимость, явления погоды, количество и форму облачности, нижнюю и верхнюю границу облачности).


Погода Аскино - сегодня

Время (UTC), дата Ветер
(°,м/с) 
Видим.   Явления Облачность Т
(°С)
Тd
(°С)
f(%) Тe
(°С)
Pmin
(гПа)
dP
(гПа)
Po
(мм)
O2
(г/м3)
Тmin Tmax R s Состояние
почвы
18 14.02.18 260 (З) н/о    9/0 средняя 
[Ac trans]
-12.7 -16.1 76 -13  1034  0.7  755  320           
21 14.02.18 тихо ()   н/о    4/0 средняя 
[Ac trans]
-13.8 -16.7 79 -14  1034.6  0.5  755  322           
00 15.02.18 250 (З) н/о    10/0 средняя 
[Ac und]
-11.3 -14.4 78 -11  1034.7  0.4  755  319           
03 15.02.18 260 (З) н/о    10/0 средняя 
[Ac und]
-10 -12.6 81 -10  1035.4  0.8  756  317  -13.8      26  неравномерный
сухой снег
100% 
06 15.02.18 230 (ЮЗ) 20000 м    8/0 средняя, верхняя 
[Ac trans|Ci sp]
-9.7 -13.1 76 -11  1036.5  1.1  757  317           
09 15.02.18 310 (СЗ) 4000 м  слаб. снег  10/0 средняя 
[Ac As]
-6 -10.5 70 -9  1036.9  0.8  757  313           
12 15.02.18 270 (З) 10 км  {снег}  10/0 средняя 
[As trans]
-5.5 -9.8 72 -9  1037.3  0.5  758  313           
18 15.02.18 260 (З) н/о    10/0 средняя 
[Ac und]
-8.8 -10.8 85 -12  1039.1  0.4  759  317           
21 15.02.18 250 (З) н/о    8/0 средняя 
[Ac trans]
-11.1 -12.7 88 -14  1039.6  0.3  759  320           
00 16.02.18 240 (ЮЗ) н/о    ясно 
-12.5 -14.5 85 -16  1040.6  0.7  760  322           
06 16.02.18 210 (ЮЗ) 10 км    4/0 верхняя 
[Ci fib]
-13.6 -15.9 83 -16  1042.6  761  324  -15.4         
09 16.02.18 160 (Ю) 10 км    1/0 верхняя 
[Ci fib]
-9.2 -13.6 70 -11  1042.3  0.1  761  319           
12 16.02.18 240 (ЮЗ) 20000 м    1/0 верхняя 
[Ci fib]
-6.7 -13.3 59 -9  1042.1  0.1  761  316           
18 16.02.18 220 (ЮЗ) н/о    ясно 
-13.6 -16 82 -16  1043.1  0.1  761  324           
21 16.02.18 150 (ЮВ) н/о    ясно 
-16.2 -18.4 83 -16  1043.4  761  328           
00 17.02.18 180 (Ю) н/о    9/0 средняя 
[Ac trans]
-15.7 -18 82 -18  1043.3  0.1  761  327           
03 17.02.18 180 (Ю) н/о    9/0 средняя 
[Ac trans]
-14.8 -17.2 82 -17  1043  -0.2  761  326  -17.1      26  неравномерный
сухой снег
100% 
06 17.02.18 170 (Ю) 10 км    9/0 верхняя 
[Ci sp]
-12.8 -15.2 82 -15  1042.8  0.1  761  323           
09 17.02.18 160 (Ю) 10 км    9/0 верхняя 
[Ci sp]
-9 -12.7 74 -12  1041.7  -0.7  761  318           
12 17.02.18 210 (ЮЗ) 10 км    6/0 верхняя 
[Ci sp]
-5.6 -10.5 68 -8  1040.2  -1.1  760  314           
18 17.02.18 170 (Ю) н/о    ясно 
-12.5 -14.5 85 -15  1040  -0.4  759  322           
21 17.02.18 160 (Ю) н/о    ясно 
-13 -14.9 86 -15  1039.5  -0.5  759  322           
00 18.02.18 180 (Ю) н/о    ясно 
-12.8 -15.1 83 -16  1038.8  -0.6  758  322           
03 18.02.18 160 (Ю) н/о    1/0 верхняя 
[Ci fib]
-14.2 -16.4 83 -18  1038.5  -0.4  758  324  -14.4      26  неравномерный
сухой снег
100% 
06 18.02.18 170 (Ю) 10 км    н/о 
-12.1 -14.9 80 -15  1038.4  0.1  758  321  -14.7         
Время (UTC), дата Ветер
(°,м/с) 
Видим.   Явления Облачность Т
(°С)
Тd
(°С)
f(%) Тe
(°С)
Pmin
(гПа)
dP
(гПа)
Po
(мм)
O2
(г/м3)
Тmin Tmax R s Состояние
почвы

Для получения пояснительной информации подведите курсор к названию столбца.

ПОГОДА Аскино - архив

Всё, что Вы хотите узнать о погоде Аскино - удобно и подробно!

Выберите нужную дату (начиная с 1 января 2015* года) и нажмите кнопку "Найти".
Будут отображены архивные сводки погоды по пункту Аскино, начиная с указанной даты.


Отображать данные в формате CSV (для использования в таблицах Excel)


Внимание! Наш архив погоды предназначен исключительно для личного некоммерческого использования в познавательных целях. Если Вам необходимы официальные справки о состоянии погоды (для производственных, юридических, коммерческих и т.п. целей), обращайтесь в органы Росгидромета.

*Примечание: данная дата относится к архиву по метеостанциям СССР (Россия, СНГ, Балтия).
Архив по метеостанциям Зарубежной Европы и Азии (кроме Китая) хранится 10 дней, по другим регионам земного шара (Китай, Африка, Америка, Австралия, Океания) - 1 день.

Аскино - район местоположения метеостанции


Название, широта, долгота, высота метеостанции:
Аскино 56.1°ш. 56.6°д. 207 м над ур. моря [Российская Федерация]

Дополнительная информация

В oтличие oт бoльшинства пoгoдных сайтoв мы публикуем пoдрoбную метеoинфoрмацию в детальнoм прoфессиoнальнoм фoрмате.

Характеристики температуры и влажнoсти вoздуха измеряются на высoте 2 м в тени вдали oт зданий и деревьев.
Скoрoсть ветра измеряется на высoте 10 м (на урoвне рoста челoвека скoрoсть ветра ниже в 1.5-2 раза). Если метеoстанция нахoдится в гoрoде или в лесу, тo скoрoсть ветра занижена на 2-4 м/с пo сравнению с oткрытым местoм. Скoрoсть ветра над акватoриями крупных рек и oзёр, а также на вершинах хoлмoв на 2-5 м/с выше, чем в oбычных услoвиях.
Атмoсфернoе давление в разных тoчках местнoсти мoжет значительнo oтличаться oт давления на метеoстанции, в зависимoсти oт услoвий рельефа (при пoдъёме на 10 м давление пoнижается примернo на 1 мм рт.ст.).